Regional Weather Roundup
Issued by NWS Northern Indiana

Home | Current Version | Previous Version | Graphics & Text | Print | Product List | Glossary On
Versions: 1 2 3 4 5 6 7 8 9 10 11 12 13 14 15 16 17 18 19 20 21 22 23 24 25 26 27 28 29 30 31 32 33 34 35 36 37 38 39 40 41 42 43 44 45 46 47 48 49 50
000
ASUS43 KIWX 261910
RWRIWX

KIWX WEATHER ROUNDUP
NATIONAL WEATHER SERVICE NORTHERN INDIANA
200 PM EST SUN FEB 26 2017

NOTE: "FAIR" INDICATES FEW OR NO CLOUDS BELOW 12,000 FEET WITH NO
SIGNIFICANT WEATHER AND/OR OBSTRUCTIONS TO VISIBILITY.

* THESE STATIONS ARE NOT UNDER NWS QUALITY CONTROL. THEY ALSO MAY NOT
  REPORT WEATHER SUCH AS PRECIPITATION OR FOG.

INZ001>027-262000-
NORTHERN INDIANA

CITY           SKY/WX    TMP DP  RH WIND       PRES   REMARKS
GARY*          MOSUNNY   46  12  25 SW23G41   29.98F
VALPARAISO     SUNNY     47  19  33 SW22G39   30.00F
MICHIGAN CITY* MOSUNNY   45  23  42 SW17G29   29.99F
LAPORTE*       SUNNY     43  22  43 SW23G30   30.00F
KNOX*          MOSUNNY   43  -8  11 SW22G30   30.02F
SOUTH BEND     SUNNY     42  19  39 SW18G35   30.00F
ELKHART*       SUNNY     41  19  42 SW18G25   30.00F
GOSHEN         CLOUDY    42  19  39 SW23G30   30.02F
MONTICELLO*    PTSUNNY   43  18  35 S17G29    30.04F
LOGANSPORT*    SUNNY     43  23  45 SW22      30.07F
ROCHESTER*     SUNNY     43  21  42 S18G26    30.05F
WARSAW*        PTSUNNY   41  18  38 S12G24    30.03F
ANGOLA*        PTSUNNY   39  27  60 SW16      30.02F
FORT WAYNE     MOSUNNY   39  22  50 SW21G28   30.07F
HUNTINGTON*    SUNNY     40  20  45 S13G21    30.06F
PERU/GRISSOM   SUNNY     43  22  43 SW22G29   30.05F
MARION*        SUNNY     40  23  51 SW17G25   30.09F

$$
INZ028>050-262000-
CENTRAL INDIANA

CITY           SKY/WX    TMP DP  RH WIND       PRES   REMARKS
LAFAYETTE      SUNNY     44  19  36 SW15G26   30.07F
KOKOMO*        SUNNY     42  21  43 SW21      30.08F
MUNCIE*        SUNNY     42  16  34 SW18      30.09F
INDIANAPOLIS   MOSUNNY   45  14  28 S15       30.11F

$$
MIZ043>046-050>051-056>058-064>065-071>073-077>080-262000-
SOUTHWEST LOWER MICHIGAN

CITY           SKY/WX    TMP DP  RH WIND       PRES   REMARKS
BATTLE CREEK   CLOUDY    39  22  50 S24G31    29.95F
BENTON HARBOR  CLOUDY    42  19  39 S17G28    29.96F
COLDWATER*     PTSUNNY   39  18  42 SW16G22   30.00F
HILLSDALE*     MOSUNNY   36  19  51 S17G24    30.00F
HOLLAND        PTSUNNY   39  20  46 SW26G36   29.92F
GRAND RAPIDS   CLOUDY    37  21  52 SW20G29   29.91F
KALAMAZOO      CLOUDY    39  22  50 S21G32    29.96F
STURGIS*       CLOUDY    39  22  50 SW18G25   29.99F
THREE RIVERS*  FAIR      40  21  46 SW24      29.99F

$$
OHZ001>008-015>018-024>025-262000-
NORTHWEST OHIO

CITY           SKY/WX    TMP DP  RH WIND       PRES   REMARKS
WAUSEON*       FAIR      41  19  42 SW20G26   30.06F
DEFIANCE       SUNNY     38  20  48 S21       30.08F
FINDLAY        SUNNY     42  19  39 SW17G26   30.09F
TOLEDO EXPRESS SUNNY     39  19  44 S16G24    30.07F
TOLEDO METCALF SUNNY     40  19  43 SW18G26   30.09F
LIMA           SUNNY     39  21  48 SW17G24   30.09F

$$
AND FOR LAKE MICHIGAN COASTAL AND OPEN LAKE BUOY OBSERVATIONS

STATION/POSITION TEMP    WIND        PRES    VSBY  WAVE
                 AIR SEA DIR/SP/G                  HT/PER
                 (F)     (DEG/KT/KT) (MB)    (MI)  (FT/S)
CALUMET HARBOR    44     200/ 17/ 26 1013.9F
MICHIGAN CITY     41     190/ 25/ 29   N/A
BURNS HARBOR      43     210/ 22/ 35 1015.6F
SAINT JOSEPH      40     220/ 20/ 25 1014.6

$$
&&




USA.gov is the U.S. government's official web portal to all federal, state and local government web resources and services.